Weather History for Pine Ridge, SD

Change the Weather History Date:

Saturday, August 3, 2013

  Actual Average Record
Temperature  
Mean Temperature 70 °F 75 °F  
Max Temperature 82 °F 90 °F 102 °F (2001)
Min Temperature 58 °F 59 °F 46 °F (2006)
Degree Days  
Heating Degree Days 0 0  
Month to date heating degree days 0 0  
Since 1 June heating degree days 80 99  
Since 1 July heating degree days 2 12  
Cooling Degree Days 5 10  
Month to date cooling degree days 20 30  
Year to date cooling degree days 404 438  
Since 1 June cooling degree days 387 421  
Growing Degree Days 18 (Base 50)    
Moisture  
Dew Point 60 °F    
Average Humidity 72    
Maximum Humidity 93    
Minimum Humidity 51    
Precipitation  
Precipitation 0.85 in 0.07 in 0.85 in (2013)
Month to date precipitation 0.85 0.21  
Year to date precipitation 12.54 12.15  
Sea Level Pressure  
Sea Level Pressure 30.09 in    
Wind  
Wind Speed 13 mph (ESE)    
Max Wind Speed 22 mph    
Max Gust Speed 30 mph    
Visibility 8 miles    
Events Rain    
T = Trace of Precipitation, MM = Missing Value Source: NWS Daily Summary

Daily Weather History Graph

Daily Weather History Graph

Search for Another Location

Airport:

Trip Planner

Search our weather history database for the weather conditions in past years. The results will help you decide how hot, cold, wet, or windy it might be!

Date:

Astronomy

Aug. 03, 2013 Rise Set
Actual Time 5:43 AM MDT 8:08 PM MDT
Civil Twilight 5:11 AM MDT 8:40 PM MDT
Nautical Twilight 4:31 AM MDT 9:19 PM MDT
Astronomical Twilight 3:46 AM MDT 10:04 PM MDT
Moon 2:53 AM MDT (8/3) 5:53 PM MDT (8/3)
Length of Visible Light 15h 29m
Length of Day
14h 25m
Waning Crescent, 9% of the Moon is Illuminated
Aug 3
Waning Crescent
Aug 6
New
Aug 14
First Quarter
Aug 20
Full
Aug 28
Last Quarter

Hourly Weather History & Observations

Time (MDT) Temp. Heat Index Dew Point Humidity Pressure Visibility Wind Dir Wind Speed Gust Speed Precip Events Conditions
12:52 AM 63.0 °F - 61.0 °F 93% 30.03 in 9.0 mi East 13.8 mph - N/A   Overcast
1:52 AM 64.0 °F - 62.1 °F 93% 30.01 in 10.0 mi ESE 12.7 mph 18.4 mph N/A   Overcast
2:52 AM 64.0 °F - 62.1 °F 93% 29.99 in 10.0 mi East 13.8 mph 19.6 mph 0.00 in   Overcast
3:25 AM 64.4 °F - 62.6 °F 94% 30.06 in 10.0 mi East 16.1 mph - N/A   Overcast
3:52 AM 64.0 °F - 62.1 °F 93% 30.01 in 10.0 mi East 12.7 mph - 0.00 in Rain Light Rain
4:23 AM 62.6 °F - 62.6 °F 100% 30.08 in 7.0 mi ENE 9.2 mph - 0.10 in Rain Light Rain
4:32 AM 62.6 °F - 62.6 °F 100% 30.08 in 9.0 mi ENE 11.5 mph - 0.10 in   Overcast
4:52 AM 63.0 °F - 62.1 °F 97% 29.99 in 9.0 mi ESE 17.3 mph 21.9 mph 0.10 in   Overcast
5:07 AM 62.6 °F - 60.8 °F 94% 30.14 in 1.5 mi North 12.7 mph 29.9 mph 0.13 in Rain Heavy Rain
5:13 AM 62.6 °F - 60.8 °F 94% 30.13 in 1.0 mi NE 9.2 mph 24.2 mph 0.20 in Rain Heavy Rain
5:21 AM 60.8 °F - 59.0 °F 94% 30.13 in 2.5 mi ENE 16.1 mph 24.2 mph 0.21 in Rain Light Rain
5:29 AM 60.8 °F - 59.0 °F 94% 30.14 in 8.0 mi ENE 8.1 mph 24.2 mph 0.22 in Rain Light Rain
5:52 AM 60.1 °F - 57.9 °F 93% 30.11 in 10.0 mi NE 18.4 mph 25.3 mph 0.22 in Rain Light Rain
6:06 AM 59.0 °F - 57.2 °F 94% 30.21 in 1.8 mi NNE 10.4 mph 20.7 mph 0.10 in Rain Heavy Rain
6:14 AM 59.0 °F - 57.2 °F 94% 30.16 in 1.2 mi East 18.4 mph 21.9 mph 0.28 in Rain Heavy Rain
6:24 AM 57.2 °F - 57.2 °F 100% 30.16 in 2.0 mi East 12.7 mph - 0.35 in Rain Light Rain
6:26 AM 57.2 °F - 57.2 °F 100% 30.17 in 3.0 mi East 8.1 mph - 0.35 in Rain Light Rain
6:52 AM 59.0 °F - 57.0 °F 93% 30.10 in 5.0 mi ESE 11.5 mph - 0.49 in Rain Light Rain
7:52 AM 62.1 °F - 59.0 °F 90% 30.08 in 10.0 mi ESE 8.1 mph - 0.04 in   Mostly Cloudy
8:52 AM 64.0 °F - 60.1 °F 87% 30.09 in 10.0 mi SE 17.3 mph 23.0 mph N/A   Overcast
9:52 AM 64.9 °F - 60.1 °F 84% 30.11 in 10.0 mi ESE 9.2 mph - N/A   Overcast
10:52 AM 69.1 °F - 57.0 °F 65% 30.11 in 10.0 mi ESE 11.5 mph - N/A   Overcast
11:52 AM 73.9 °F - 57.0 °F 55% 30.11 in 10.0 mi SE 17.3 mph 24.2 mph N/A   Overcast
12:52 PM 75.9 °F - 60.1 °F 58% 30.09 in 10.0 mi SSE 13.8 mph 20.7 mph N/A   Scattered Clouds
1:52 PM 75.9 °F - 59.0 °F 56% 30.09 in 10.0 mi SSE 12.7 mph 20.7 mph N/A   Mostly Cloudy
2:52 PM 79.0 °F - 62.1 °F 56% 30.07 in 10.0 mi South 9.2 mph - N/A   Mostly Cloudy
3:52 PM 80.1 °F 81.1 °F 61.0 °F 52% 30.05 in 10.0 mi South 11.5 mph 19.6 mph N/A   Mostly Cloudy
4:52 PM 80.1 °F 81.2 °F 62.1 °F 54% 30.06 in 10.0 mi South 12.7 mph 24.2 mph N/A   Overcast
5:52 PM 77.0 °F - 62.1 °F 60% 30.05 in 10.0 mi SSE 13.8 mph - N/A   Mostly Cloudy
6:52 PM 75.9 °F - 62.1 °F 62% 30.06 in 10.0 mi South 11.5 mph 20.7 mph N/A   Mostly Cloudy
7:52 PM 73.9 °F - 62.1 °F 66% 30.08 in 10.0 mi South 12.7 mph - N/A   Overcast
8:52 PM 73.0 °F - 62.1 °F 68% 30.06 in 10.0 mi SSE 10.4 mph 17.3 mph N/A   Overcast
9:52 PM 71.1 °F - 62.1 °F 73% 30.06 in 10.0 mi SE 6.9 mph - N/A   Overcast
10:52 PM 72.0 °F - 62.1 °F 71% 30.06 in 10.0 mi South 10.4 mph 17.3 mph N/A   Overcast
11:52 PM 70.0 °F - 62.1 °F 76% 30.05 in 10.0 mi SSE 15.0 mph 21.9 mph N/A   Overcast